AirNav   Air Wisconsin pilot careers
 
 356 users online  

SC90 Do-Little Field Airport
St Matthews, South Carolina, USA

GOING TO ST MATTHEWS?


FAA INFORMATION EFFECTIVE 01 FEBRUARY 2018

Location

FAA Identifier: SC90
Lat/Long: 33-40-34.0000N / 080-56-54.0000W
33-40.566667N / 080-56.900000W
33.6761111 / -80.9483333
(estimated)
Elevation: 369 ft. / 112 m (estimated)
Variation: 05W (1990)
From city: 9 miles W of ST. MATTHEWS, SC
Time zone: UTC -5 (UTC -4 during Daylight Saving Time)
Zip code: 29135

Airport Operations

Airport use: Private use. Permission required prior to landing
Activation date: 06/1993
Control tower: no
ARTCC: JACKSONVILLE CENTER
FSS: ANDERSON FLIGHT SERVICE STATION
Attendance: UNATNDD
Wind indicator: yes
Segmented circle: no

Airport Communications

WX ASOS at OGB (14 nm S): 118.525 (803-536-3901)
WX ASOS at CUB (18 nm N): 119.675 (803-929-0665)
WX ASOS at CAE (18 nm NW): PHONE 803-822-4168

Nearby radio navigation aids

VOR radial/distance  VOR name  Freq  Var
CAEr156/12.1COLUMBIA VORTAC114.7002W
MMTr214/16.6MC ENTIRE VORTAC113.2008W
VANr302/27.7VANCE VORTAC110.4006W

 
NDB name  Hdg/Dist  Freq  Var  ID
SUMTER244/34.925207WSMS ... -- ...
AIKEN094/36.434706WAIK .- .. -.-
MANNING284/37.538106WMNI -- -. ..
WINNSBORO175/39.241407WFDW ..-. -.. .--

Airport Services

Runway Information

Runway 14/32

Dimensions: 3200 x 100 ft. / 975 x 30 m
Surface: turf
RUNWAY 14  RUNWAY 32
Traffic pattern: leftright

Airport Ownership and Management from official FAA records

Ownership: Privately-owned
Owner: DO-LITTLE FIELD INC
160 DO LITTLE LANE
ST MATTHEWS, SC 29135
Phone 803-874-4281
Manager: BILL MITCHELL
35 DOOLITTLE LN
ST MATTHEWS, SC 29135
Phone 803-874-1310

Airport Operational Statistics

Aircraft based on the field: 9
Single engine airplanes: 9
    

Instrument Procedures

There are no published instrument procedures at SC90.

Some nearby airports with instrument procedures:

KXNO - North Air Force Auxiliary Field (8 nm SW)
KOGB - Orangeburg Municipal Airport (14 nm S)
KMMT - Mc Entire Joint National Guard Base (16 nm NE)
6J0 - Lexington County Airport at Pelion (16 nm NW)
KCUB - Jim Hamilton L B Owens Airport (18 nm N)
KCAE - Columbia Metropolitan Airport (18 nm NW)
 
Loc | Ops | Rwys | IFR | FBO | Links
Com | Nav | Svcs | Stats | Notes

AirNav Hotels Sweepstakes
 
Area around SC90 (Do-Little Field Airport)
 
Road maps at: MapQuest Bing Google
 
Aerial photo
WARNING: Photo may not be current or correct
Aerial photo of SC90 (Do-Little Field Airport)
Photo by Eddie Price
Photo taken 10-Nov-2012
looking west.

Do you have a better or more recent aerial photo of Do-Little Field Airport that you would like to share? If so, please send us your photo.

 
Sectional chart

 
Airport distance calculator
Flying to Do-Little Field Airport? Find the distance to fly.

From to SC90

Sunrise and sunset
Times for 20-Feb-2018
 Local
(UTC-5)
 Zulu
(UTC)
Morning civil twilight06:3911:39
Sunrise07:0412:04
Sunset18:1123:11
Evening civil twilight18:3723:37

Current date and time
Zulu (UTC)  20-Feb-2018 10:07:48
Local (UTC-5)  20-Feb-2018 05:07:48
 
METAR
KXNO 
8nm SW 
200956Z AUTO 00000KT 3/8SM R23/2400V2800FT FG VV000 16/16 A3040 RMK AO2 SLP295 T01570157 $
KOGB 
13nm S 
200953Z AUTO 00000KT 1/4SM FG VV002 16/15 A3039 RMK AO2 SLP290 T01560150
KMMT 
17nm NE 
200956Z AUTO 00000KT 1/8SM R32/0900V1000FT FG VV001 16/16 A3040 RMK AO2 SLP296 T01610161 $
KCAE 
18nm NW 
200956Z 08003KT M1/4SM FG VV002 16/16 A3039 RMK AO2 TWR VIS 1/4 SLP288 T01610161 RVRNO
KCUB 
18nm N 
200953Z AUTO 00000KT 1/4SM FG VV002 16/16 A3040 RMK AO2 SLP293 T01560156
TAF
KOGB 
13nm S 
200552Z 2006/2106 VRB03KT 3SM BR SCT002 TEMPO 2006/2007 1/2SM FG OVC002 FM200700 VRB02KT 1/4SM FG VV002 FM201500 VRB04KT 2SM BR BKN008 FM201700 18006KT P6SM BKN015 FM202000 16007KT P6SM SCT035
KMMT 
17nm NE 
200800Z 2008/2114 10002KT 0400 FG OVC001 QNH3038INS TEMPO 2008/2014 2400 BR OVC002 BECMG 2013/2014 15006KT 4800 BR BKN005 OVC025 QNH3038INS BECMG 2015/2016 15012KT 9999 NSW FEW015 BKN030 QNH3038INS BECMG 2021/2022 15006KT 9999 BKN025 BKN040 QNH3042INS BECMG 2105/2106 16006KT 8000 BR BKN005 BKN015 QNH3045INS TEMPO 2110/2114 2400 BR OVC002 TX24/2020Z TN14/2012Z
KCAE 
18nm NW 
200654Z 2007/2106 04004KT 6SM BR OVC005 TEMPO 2007/2009 1/2SM FG OVC003 FM200900 VRB03KT 1/4SM FG VV003 FM201500 VRB04KT 2SM BR BKN008 FM201700 18006KT P6SM BKN015 FM202000 17006KT P6SM BKN035
KCUB 
18nm N 
200655Z 2007/2106 VRB02KT 6SM BR OVC005 TEMPO 2007/2009 1/2SM FG OVC003 FM200900 VRB03KT 1/4SM FG VV002 FM201500 VRB04KT 2SM BR BKN008 FM201700 18005KT P6SM BKN015 FM202000 17006KT P6SM BKN035
NOTAMs
Click for the latest NOTAMs
NOTAMs are issued by the DoD/FAA and will open in a separate window not controlled by AirNav.

 

 
 

Would you like to see your business listed on this page?

 If your business provides an interesting product or service to pilots, flight crews, aircraft, or users of the Do-Little Field Airport, you should consider listing it here.  To start the listing process, click on the button below
 
Add a business
 

Other Pages about Do-Little Field Airport

Update a link
 
Copyright © AirNav, LLC. All rights reserved. Privacy Policy  Contact